Aurora, CO

3:49 AM MDT on September 27, 2016 (GMT -0600)
Denver International

Weather History for KDEN - December, 2014

Change the Weather History Date:

Tuesday, December 2, 2014

  Actual Average Record
Temperature  
Mean Temperature 43 °F 32 °F  
Max Temperature 64 °F 45 °F 74 °F (1885)
Min Temperature 21 °F 18 °F -4 °F (1929)
Degree Days  
Heating Degree Days 22 33  
Month to date heating degree days 59 66  
Since 1 July heating degree days 1313 1448  
Cooling Degree Days 0 0  
Month to date cooling degree days 0 0  
Year to date cooling degree days 701 769  
Moisture  
Dew Point 16 °F    
Average Humidity 44    
Maximum Humidity 75    
Minimum Humidity 12    
Precipitation  
Precipitation 0.00 in 0.01 in 0.52 in (1921)
Month to date precipitation 0.00 0.02  
Year to date precipitation 18.18 13.97  
Snow  
Snow 0.00 in - - ()
Month to date snowfall 0  
Since 1 July snowfall 4  
Snow Depth 0.00 in    
Sea Level Pressure  
Sea Level Pressure 29.98 in    
Wind  
Wind Speed 8 mph (SE)    
Max Wind Speed 16 mph    
Max Gust Speed 17 mph    
Visibility 10 miles    
Events      
T = Trace of Precipitation, MM = Missing Value Source: NWS Daily Summary

Daily Weather History Graph

Daily Weather History Graph

Search for Another Location

Airport or City:

Trip Planner

Search our weather history database for the weather conditions in past years. The results will help you decide how hot, cold, wet, or windy it might be!

Date:

Astronomy

Dec. 02, 2014 Rise Set
Actual Time 7:01 AM MST 4:34 PM MST
Civil Twilight 6:31 AM MST 5:04 PM MST
Nautical Twilight 5:58 AM MST 5:37 PM MST
Astronomical Twilight 5:25 AM MST 6:10 PM MST
Moon 2:17 PM MST (12/2) 2:47 AM MST (12/2)
Length of Visible Light 10h 32m
Length of Day
9h 32m
Waxing Gibbous, 84% of the Moon is Illuminated
Dec 2
Waxing Gibbous
Dec 6
Full
Dec 14
Last Quarter
Dec 21
New
Dec 28
First Quarter

Hourly Weather History & Observations

Time (MST) Temp. Windchill Dew Point Humidity Pressure Visibility Wind Dir Wind Speed Gust Speed Precip Events Conditions
12:53 AM 30.9 °F 26.2 °F 18.0 °F 59% 30.08 in 10.0 mi SW 4.6 mph - N/A   Clear
1:53 AM 36.0 °F 29.6 °F 18.0 °F 48% 30.05 in 10.0 mi SSE 8.1 mph - N/A   Clear
2:53 AM 36.0 °F 30.3 °F 16.0 °F 44% 30.01 in 10.0 mi South 6.9 mph - N/A   Clear
3:53 AM 32.0 °F 25.6 °F 16.0 °F 52% 30.02 in 10.0 mi SSW 6.9 mph - N/A   Clear
4:53 AM 32.0 °F 24.8 °F 16.0 °F 52% 30.03 in 10.0 mi South 8.1 mph - N/A   Clear
5:53 AM 32.0 °F 22.5 °F 17.1 °F 54% 30.03 in 10.0 mi South 12.7 mph - N/A   Clear
6:53 AM 35.1 °F 26.9 °F 16.0 °F 46% 30.03 in 10.0 mi South 11.5 mph - N/A   Scattered Clouds
7:53 AM 36.0 °F 28.0 °F 18.0 °F 48% 30.04 in 10.0 mi SSE 11.5 mph - N/A   Mostly Cloudy
8:53 AM 45.0 °F 41.2 °F 19.0 °F 36% 30.01 in 10.0 mi SE 6.9 mph - N/A   Mostly Cloudy
9:53 AM 52.0 °F - 19.9 °F 28% 29.98 in 10.0 mi ESE 5.8 mph - N/A   Scattered Clouds
10:53 AM 57.0 °F - 12.9 °F 18% 29.95 in 10.0 mi Calm Calm - N/A   Scattered Clouds
11:53 AM 60.1 °F - 10.9 °F 14% 29.89 in 10.0 mi Variable 3.5 mph - N/A   Scattered Clouds
12:53 PM 61.0 °F - 10.0 °F 13% 29.86 in 10.0 mi SSE 4.6 mph - N/A   Scattered Clouds
1:53 PM 63.0 °F - 9.0 °F 12% 29.83 in 10.0 mi East 4.6 mph - N/A   Scattered Clouds
2:53 PM 62.1 °F - 10.9 °F 13% 29.83 in 10.0 mi East 8.1 mph - N/A   Mostly Cloudy
3:53 PM 57.0 °F - 12.9 °F 18% 29.86 in 10.0 mi ESE 11.5 mph - N/A   Mostly Cloudy
4:53 PM 45.0 °F 39.7 °F 15.1 °F 30% 29.92 in 10.0 mi ESE 10.4 mph - N/A   Mostly Cloudy
5:53 PM 41.0 °F 35.2 °F 15.1 °F 35% 29.95 in 10.0 mi ESE 9.2 mph - N/A   Mostly Cloudy
6:53 PM 39.0 °F 31.8 °F 14.0 °F 36% 29.96 in 10.0 mi SE 11.5 mph - N/A   Mostly Cloudy
7:53 PM 36.0 °F 28.0 °F 17.1 °F 46% 29.99 in 10.0 mi East 11.5 mph - N/A   Mostly Cloudy
8:53 PM 28.9 °F 22.8 °F 19.9 °F 69% 30.00 in 10.0 mi SSE 5.8 mph - N/A   Scattered Clouds
9:53 PM 33.1 °F - 21.9 °F 64% 29.99 in 10.0 mi Calm Calm - N/A   Scattered Clouds
10:53 PM 26.1 °F 16.2 °F 19.9 °F 78% 30.01 in 10.0 mi NE 10.4 mph - N/A   Scattered Clouds
11:53 PM 24.1 °F 15.2 °F 19.9 °F 84% 30.06 in 10.0 mi NNE 8.1 mph - N/A   Mostly Cloudy